Location: Taupo
(38.6830°S, 176.0830°E)
Time: 13:04:20
(UTC+12:00)

Daily predictions for brighter satellites

Satellite Brightness Start Highest point End
(mag) Time Altitude Azimuth Time Altitude Azimuth Time Altitude Azimuth
Cosmos 405 Rocket 3.0 17:31:13 10° N 17:34:49 47° E 17:38:33 10° SSE
Cosmos 1633 3.8 17:41:41 10° NE 17:44:27 21° E 17:47:15 10° SE
SL-16 R/B 3.4 17:40:30 10° NNE 17:44:44 22° E 17:49:00 10° SE
USA 234 3.4 17:38:25 10° SE 17:44:59 65° NE 17:51:30 10° NW
Cosmos 1354 Rocket 4.0 17:39:52 10° SSW 17:45:13 82° ESE 17:50:28 10° NNE
Cosmos 1076 Rocket 4.0 17:42:52 10° NNE 17:46:53 40° E 17:50:59 10° SSE
Cosmos 1606 3.6 17:45:54 10° SSE 17:49:14 28° ESE 17:52:32 10° NE
CZ-4B R/B 1.2 17:46:52 10° NNE 17:49:52 56° ESE 17:52:58 10° S
IRIDIUM 104 4.3 17:45:00 10° S 17:50:18 71° E 17:55:31 10° N
Atlas Centaur 2 3.5 17:46:35 10° WNW 17:50:56 31° N 17:56:17 10° NE
Cosmos 2151 4.1 17:48:12 10° NE 17:51:36 24° E 17:55:02 10° SE
Meteor PRIRODA 3.8 17:52:21 10° S 17:56:09 83° WSW 17:59:52 10° NNW
IRIDIUM 114 4.4 17:54:07 10° S 17:59:27 87° E 18:04:42 10° N
Cosmos 1437 Rocket 3.0 17:56:11 10° S 17:59:50 41° ESE 18:03:27 10° NNE
ERS-2 3.7 17:59:01 10° ENE 18:01:22 16° ESE 18:03:44 10° SSE
Cosmos 2292 Rocket 4.3 17:58:29 10° NNE 18:02:29 39° E 18:07:44 10° SSE
Cosmos 1356 4.2 17:59:43 10° NNW 18:03:05 55° W 18:06:30 10° S
ATLAS CENTAUR Rocket 3.8 18:01:11 10° NW 18:04:04 17° N 18:06:34 10° NE
Cosmos 1242 Rocket 3.8 18:02:10 10° SSE 18:05:06 21° ESE 18:08:00 10° NE
deb Chang Zheng 4 3.5 18:02:08 10° SSE 18:06:32 69° ENE 18:10:51 10° N
ATLAS 3B R/B 3.4 17:59:11 10° NW 18:06:37 61° SW 18:13:57 10° SSE
Cosmos 2333 Rocket 4.4 18:02:38 10° WNW 18:06:54 21° SW 18:11:12 10° S
Cosmos 2058 3.9 18:03:21 10° NNW 18:07:23 51° W 18:11:30 10° S
Meteor 2-15 4.5 18:01:17 10° S 18:07:28 89° W 18:13:32 10° N
Envisat 3.5 18:03:21 10° S 18:08:27 64° WSW 18:13:30 10° NNW
Cosmos 2237 Rocket 2.5 18:07:08 10° NNW 18:12:46 70° WSW 18:18:30 10° SSE
SJ 16-02 2.1 18:10:35 10° S 18:14:31 29° ESE 18:18:24 10° NE
SMAP 3.3 18:10:25 10° SSE 18:15:00 48° E 18:19:31 10° N
Cosmos 1943 Rocket 3.4 18:16:34 10° S 18:20:46 20° SE 18:21:53 19° ESE
NOAA 6 4.0 18:16:10 10° SSE 18:21:21 71° ENE 18:26:28 10° N
H-2A R/B 3.6 18:21:39 21° E 18:21:39 21° E 18:24:34 10° NNE
Cosmos 1689 Rocket 2.4 18:19:56 10° NE 18:22:37 37° ESE 18:25:22 10° S
Cosmos 1553 Rocket 3.9 18:17:10 10° S 18:23:15 60° E 18:29:15 10° NNE
Cosmos 1867 4.5 18:20:29 10° S 18:25:04 27° SE 18:26:56 22° E
Cosmos 1763 Rocket 4.4 18:21:53 10° NNE 18:26:23 29° E 18:28:30 22° ESE
Hubble Space Telescope 3.1 18:33:55 10° NNW 18:35:50 13° NNE 18:37:25 11° NE
Okean O Rocket 2.1 18:34:15 23° SE 18:36:26 38° E 18:40:36 10° NNE
PSLV R/B 3.9 18:33:42 10° S 18:37:30 72° WSW 18:41:12 10° NNW
Cosmos 1417 Rocket 4.5 18:32:06 10° S 18:38:31 67° E 18:44:47 10° NNE
Lacrosse 5 2.0 18:34:54 10° SW 18:39:57 54° SE 18:42:25 28° ENE
Cosmos 2278 Rocket 3.0 18:34:38 10° SSW 18:40:11 53° WNW 18:45:41 10° N
Cosmos 2369 Rocket 3.9 18:40:04 10° SSE 18:41:48 15° SSE 18:41:48 15° SSE
MOS 1-B 4.3 18:39:59 10° SSE 18:45:53 81° ENE 18:51:43 10° NNW
Cosmos 1933 3.4 18:42:54 10° S 18:47:01 55° E 18:51:02 10° NNE
BREEZE-M DEB (TANK) 3.9 18:44:47 10° NNW 18:47:26 29° NE 18:47:27 29° NE
Meteor 2-21 Rocket 4.4 18:42:18 10° N 18:48:26 62° E 18:54:37 10° SSE
CZ-4B R/B 3.1 18:44:49 10° SSE 18:50:08 61° ENE 18:55:23 10° N
CZ-2C R/B 3.7 18:44:52 10° N 18:50:19 50° W 18:55:48 10° SSW
Cosmos 468 Rocket 4.1 18:50:05 10° N 18:55:17 56° ENE 18:57:19 35° SE
Okean 3 Rocket 3.6 18:53:48 10° N 18:57:59 52° E 18:57:59 52° E
Meteor 2-3 Rocket 3.7 18:55:41 10° N 19:01:18 88° W 19:07:04 10° S
Cosmos 1655 Rocket 4.0 18:55:43 10° N 19:02:02 87° E 19:08:30 10° S
H-2A R/B 3.8 19:06:48 16° NNE 19:06:48 16° NNE 19:07:58 10° NNE
Cosmos 1766 Rocket 3.5 18:59:41 10° N 19:04:08 64° E 19:04:23 63° ESE
Cosmos 1461 3.7 19:02:33 10° SW 19:06:51 55° WNW 19:11:18 10° NNE
ATLAS CENTAUR R/B 2.9 19:16:31 10° SSW 19:18:32 26° SSW 19:18:32 26° SSW
Cosmos 1939 Rocket 4.0 19:17:52 16° S 19:20:53 44° WSW 19:24:52 10° NW
Lacrosse 5 rocket 3.3 19:22:05 10° NNW 19:24:00 22° N 19:24:00 22° N
Cosmos 883 Rocket 4.3 19:20:32 10° S 19:26:50 82° E 19:33:06 10° N
USA 234 4.2 19:24:16 23° SSE 19:27:44 40° SSW 19:33:45 10° W
CZ-2C R/B 3.4 19:25:08 20° S 19:28:18 56° WSW 19:32:59 10° NNW
SL-16 R/B 3.0 19:22:58 10° NW 19:28:26 48° WSW 19:32:00 21° S
ERS-2 4.0 19:31:22 10° NNW 19:34:37 30° W 19:37:55 10° SW
Atlas Centaur 2 4.3 19:35:20 10° WNW 19:39:33 21° NNW 19:41:58 17° N
Cosmos 2297 4.0 19:39:45 10° SSW 19:45:30 65° WNW 19:46:43 51° NNW
SJ 16-02 3.7 19:49:24 10° SW 19:52:54 23° W 19:56:21 10° NNW
Cosmos 1943 Rocket 3.1 19:59:19 10° SSW 20:03:29 45° WSW 20:03:29 45° WSW
Cosmos 1607 4.4 20:01:34 10° SW 20:07:10 56° W 20:07:10 56° W
Okean O Rocket 4.1 20:11:42 19° SW 20:12:29 19° WSW 20:15:40 10° WNW
Lacrosse 5 4.0 20:18:32 10° WSW 20:21:42 23° WNW 20:21:42 23° WNW
Cosmos 2369 Rocket 4.5 20:22:37 10° SSW 20:23:38 16° SSW 20:23:38 16° SSW
